Regional Weather Roundup
Issued by NWS

Home | Current Version | Previous Version | Text Only | Print | Product List | Glossary On
Versions: 1 2 3 4 5 6 7 8 9 10 11 12 13 14 15 16 17 18 19 20 21 22 23 24 25 26 27 28 29 30 31 32 33 34 35 36 37 38 39 40 41 42 43 44 45 46 47 48 49 50
000
ASUS43 KLOT 301110
RWRIL

ILLINOIS REGIONAL WEATHER ROUNDUP
NATIONAL WEATHER SERVICE CHICAGO/ROMEOVILLE IL
600 AM CDT WED JUL 30 2014

NOTE: "FAIR" INDICATES FEW OR NO CLOUDS BELOW 12,000 FEET WITH NO
SIGNIFICANT WEATHER AND/OR OBSTRUCTIONS TO VISIBILITY.

* THESE STATIONS ARE NOT UNDER NWS QUALITY CONTROL. THEY ALSO MAY NOT
  REPORT WEATHER SUCH AS PRECIPITATION OR FOG.

ILZ001-002-007-009-015-016-024-301200-
NORTHWEST ILLINOIS

CITY           SKY/WX    TMP DP  RH WIND       PRES   REMARKS
MOLINE         CLEAR     56  53  90 CALM      30.05R
STERLING*      MOCLDY    59  55  88 W3        30.05S
SAVANNA*       MOCLDY    59  57  93 CALM      30.04F
$$

ILZ003-004-008-010-011-017-018-301200-
NORTH CENTRAL ILLINOIS

CITY           SKY/WX    TMP DP  RH WIND       PRES   REMARKS
ROCKFORD       MOCLDY    59  55  87 CALM      30.06R
FREEPORT*      CLEAR     57  55  93 W6        30.07S
ROCHELLE*      CLOUDY    59  56  91 CALM      30.04S
DE KALB*       MOCLDY    59  55  87 W6        30.04S
PERU*          PTCLDY    60  57  91 NW5       30.05S
$$

ILZ005-006-012>014-019>023-301200-
NORTHEAST ILLINOIS

CITY           SKY/WX    TMP DP  RH WIND       PRES   REMARKS
CHICAGO-OHARE  MOCLDY    62  54  74 W6        30.02R
CHICAGO-MIDWAY MOCLDY    63  57  81 CALM      30.02R
AURORA         CLOUDY    59  56  89 CALM      30.03S
LANSING*       PTCLDY    58  55  89 CALM      30.03R
JOLIET*        CLOUDY    59  56  91 CALM      30.04S
WAUKEGAN       CLOUDY    58  56  93 CALM      30.01R
DUPAGE AIRPORT MOCLDY    60  55  83 W5        30.03R
KANKAKEE*      CLOUDY    60  58  94 W3        30.04S
WHEELING       CLOUDY    62  56  80 W3        30.03R
MORRIS*        MOCLDY    61  61 100 W3        30.03S
ROMEOVILLE*    CLOUDY    60  58  94 W6        30.04R
NORTHERLY ISL    N/A     64  55  72 W6          N/A
$$

LMZ740>746-301200-
SOUTHERN LAKE MICHIGAN

STATION/POSITION SKY/WX   TEMP    WIND        PRES    VSBY  WAVE
                          AIR SEA DIR/SP/G                  HT/PER
                          (F)     (DEG/KT/KT) (MB)    (MI)  (FT/S)
SOUTHERN BUOY              61 60  270/  6/  8 1016.1R         1
WAUKEGAN HARBOR            61     280/  5/  7   N/A
HARRISON CRIB              63     290/  8/ 10   N/A
BURNHAM HARBOR             64     290/  7/ 11   N/A
CALUMET HARBOR             62     260/  1/  3 1015.3F
MICHIGAN CITY              65     250/  9/ 10   N/A
MICHIGAN CITY 6N           65 68  280/  8/  8   N/A           1/ 3
ST. JOSEPH                 64 67  270/  6/  8   N/A           1
$$

ILZ025>027-034>036-040-047-049-050-058-095>099-301200-
WEST-CENTRAL ILLINOIS

CITY           SKY/WX    TMP DP  RH WIND       PRES   REMARKS
QUINCY         CLEAR     59  57  93 CALM      30.08R
GALESBURG*     CLEAR     54  53  95 CALM      30.06R
MACOMB*        CLEAR     55  54  99 W3        30.08S
JACKSONVILLE*  CLEAR     57  56  95 SW5       30.08S
PITTSFIELD*    CLEAR     58  55  89 W3        30.09S
$$

ILZ028>032-037-038-041>044-048-051>054-059>061-301200-
CENTRAL ILLINOIS

CITY           SKY/WX    TMP DP  RH WIND       PRES   REMARKS
PONTIAC        PTCLDY    59  57  94 CALM      30.04S
DECATUR        CLEAR     63  57  81 W6        30.07R
PEORIA         CLEAR     61  56  83 CALM      30.05S
LACON*         CLEAR     57  56  95 CALM      30.04S
LINCOLN*       CLEAR     59  56  89 CALM      30.04S
SPRINGFIELD    CLEAR     58  55  90 SW5       30.07R
TAYLORVILLE    CLEAR     54  52  94 CALM      30.07S
$$

ILZ033-039-045-046-055>057-062-063-301200-
EAST-CENTRAL ILLINOIS

CITY           SKY/WX    TMP DP  RH WIND       PRES   REMARKS
CHAMPAIGN      CLEAR     56  54  93 W6        30.06R
DANVILLE*      CLEAR     55  55  98 SW3       30.02S
RANTOUL*       CLEAR     59  55  89 W6        30.06R
MATTOON        CLEAR     60  55  83 W6        30.06S
PARIS*         CLEAR     56  55  95 CALM      30.07S
$$

ILZ079-100>102-301200-
SOUTHWEST ILLINOIS

CITY           SKY/WX    TMP DP  RH WIND       PRES   REMARKS
ALTON          CLEAR     55  55 100 CALM      30.08S
BELLEVILLE     CLEAR     55  55  99 CALM      30.08R
CAHOKIA*       CLEAR     57  55  93 CALM      30.08R
SPARTA*        PTCLDY    57  54  88 CALM      30.10R
$$

ILZ064>066-069>071-074>076-080>082-084>086-088>090-092>094-301200-
SOUTH-CENTRAL ILLINOIS

CITY           SKY/WX    TMP DP  RH WIND       PRES   REMARKS
CARBONDALE     PTCLDY    56  53  90 CALM      30.10R
CAIRO*         PTCLDY    59  56  92 CALM      30.10S
EFFINGHAM*     CLEAR     55  51  88 CALM      30.08S
MARION         PTCLDY    59  57  94 CALM      30.10R
MT. VERNON     CLEAR     54  48  82 CALM      30.10R
CENTRALIA*       N/A     51  50  94 CALM      30.09R FOG
SALEM*         CLEAR    N/A N/A N/A CALM      30.09R
METROPOLIS*    PTCLDY    55  53  94 CALM      30.10R
$$

ILZ067-068-072-073-078-083-087-091-301200-
SOUTHEAST ILLINOIS

CITY           SKY/WX    TMP DP  RH WIND       PRES   REMARKS
LAWRENCEVILLE  CLEAR     56  53  90 S3        30.08R
FLORA*         CLEAR     54  53  97 CALM      30.08S
FAIRFIELD*     CLEAR     55  55 100 CALM      30.09R
HARRISBURG*    CLEAR     55  55 100 CALM      30.11R FOG
ROBINSON*      CLEAR     57  55  93 CALM      30.09R
CARMI*         CLEAR     55  55 100 CALM      30.09R
$$

ABBREVIATIONS USED IN REMARKS
   TC - TEMPERATURE IN CELSIUS
  WCI - WIND CHILL INDEX
   HX - HEAT INDEX
  VSB - VISIBILITY
$$




USA.gov is the U.S. government's official web portal to all federal, state and local government web resources and services.